Voltar ao catálogo

STARLINK-35883

AtivoComunicaçõesVLEO
NORAD 66892·PAYLOAD·🇺🇸 United States

Lançado Dec 4, 2025 de Vandenberg Space Force Base

Loading…

Próximas Passagens (próximas 24 horas)

TLE

AtualizadoSource: CelesTrak SupGP

Época: Sep 14, 2026, 23:06 UTC

1 66892C 25283Q   26257.96298611  .00007524  00000+0  22225-3 0  2575
2 66892  53.1570 223.2621 0001429  97.5342  38.2805 15.34394001    15

Acompanhe STARLINK-35883 em tempo real com AllMySat

Download on the App Store